Home   Weather   Italy   Milan   Past weeks
Flag for Italy

Past Weather in Milan, Italy — Yesterday and Last 2 Weeks

Currently: 72 °F. Scattered clouds. (Weather station: Milan / Linate, Italy). See more current weather

Past Weather in Milan — Graph

°F

Milan Temperature Yesterday

Maximum temperature yesterday: 70 °F (at 12:20 am)
Minimum temperature yesterday: 61 °F (at 10:50 pm)
Average temperature yesterday: 66 °F

High & Low Weather Summary for the Past Weeks

 TemperatureHumidityPressure
High86 °F (Sep 13, 2:50 pm)100% (Sep 16, 8:50 pm)30.27 "Hg (Sep 16, 8:50 pm)
Low54 °F (Sep 20, 3:20 am)31% (Sep 12, 5:50 pm)29.74 "Hg (Sep 19, 1:50 pm)
Average68 °F76%30.03 "Hg
* Reported Sep 12 2:20 pm — Sep 27 2:20 pm, Milan. Weather by CustomWeather, © 2021

Note: Actual official high and low records may vary slightly from our data, if they occured in-between our weather recording intervals... More about our weather records

Milan Weather History for the Previous 24 Hours

Scroll right to see more
 ConditionsComfort  
Time TempWeatherWind HumidityBarometerVisibility
2:20 pm
Mon, Sep 27
72 °FScattered clouds.5 mph73%30.04 "HgN/A
1:50 pm72 °FScattered clouds.3 mph69%30.04 "HgN/A
1:20 pm70 °FBroken clouds.3 mph78%30.07 "HgN/A
12:50 pm70 °FBroken clouds.3 mph73%30.07 "HgN/A
12:20 pm68 °FPartly sunny.3 mph83%30.07 "HgN/A
11:50 am68 °FPartly sunny.5 mph83%30.07 "HgN/A
11:20 am68 °FBroken clouds.3 mph83%30.07 "Hg4 mi
10:50 am64 °FFog.3 mph94%30.07 "Hg2 mi
10:20 am64 °FFog.5 mph94%30.07 "Hg2 mi
9:50 am63 °FFog.3 mph100%30.07 "Hg1 mi
9:20 am63 °FPartly sunny.5 mph100%30.07 "Hg1 mi
8:50 am63 °FPartly sunny.3 mph100%30.07 "Hg1 mi
8:20 am61 °FScattered clouds.2 mph100%30.07 "Hg1 mi
7:50 am61 °FScattered clouds.3 mph100%30.07 "Hg1 mi
7:20 am63 °FScattered clouds.3 mph100%30.04 "Hg1 mi
6:50 am63 °FPassing clouds.3 mph100%30.04 "Hg1 mi
6:20 am63 °FFog.1 mph100%30.04 "Hg1 mi
5:50 am63 °FFog.2 mph100%30.04 "Hg1 mi
5:20 am63 °FFog.2 mph100%30.04 "Hg1 mi
4:50 am63 °FFog.1 mph100%30.04 "Hg1 mi
4:20 am63 °FFog.1 mph100%30.04 "Hg1 mi
3:50 am63 °FFog.2 mph100%30.07 "Hg1 mi
2:50 am63 °FFog.1 mph100%30.07 "Hg1 mi
2:20 am63 °FFog.No wind100%30.07 "Hg1 mi
1:50 am63 °FFog.1 mph100%30.07 "Hg1 mi
1:20 am63 °FFog.1 mph100%30.07 "Hg1 mi
12:50 am61 °FFog.2 mph100%30.09 "Hg1 mi
12:20 am61 °FLight fog.2 mph100%30.09 "Hg1 mi
11:50 pm
Sun, Sep 26
61 °FLight fog.1 mph100%30.09 "Hg2 mi
11:20 pm61 °FLight fog.2 mph100%30.07 "Hg2 mi
10:50 pm61 °FLight fog.1 mph100%30.07 "Hg3 mi
10:20 pm63 °FClear.2 mph100%30.09 "Hg10 mi
9:50 pm63 °FClear.6 mph100%30.07 "Hg10 mi
9:20 pm63 °FClear.6 mph100%30.07 "Hg10 mi
8:50 pm63 °FPassing clouds.3 mph100%30.07 "HgN/A
8:20 pm66 °FPassing clouds.3 mph94%30.09 "Hg5 mi
7:50 pm66 °FPassing clouds.7 mph94%30.07 "Hg4 mi
7:20 pm66 °FPassing clouds.5 mph94%30.09 "Hg4 mi
6:50 pm66 °FPartly sunny.2 mph94%30.07 "Hg5 mi
6:20 pm66 °FPartly sunny.7 mph94%30.07 "Hg4 mi
5:50 pm66 °FLight rain. Scattered clouds.8 mph94%30.04 "Hg3 mi
5:20 pm64 °FThunderstorms. Scattered clouds.17 mph100%30.01 "Hg3 mi
4:50 pm66 °FThunderstorms. Broken clouds.10 mph94%30.07 "Hg2 mi
4:20 pm66 °FThunderstorms. Broken clouds.2 mph94%30.12 "Hg2 mi
3:50 pm66 °FThunderstorms. Broken clouds.3 mph94%30.12 "Hg2 mi
3:20 pm66 °FThunderstorms. Broken clouds.2 mph94%30.09 "Hg3 mi
Weather by CustomWeather, © 2021

See weather overview